User: anonymous   Login
Location: *
(51.5000°N, 0.1100°W)
Time: 08:41:08
(UTC+00:00)
Language:

Geosat - Orbit

View from above orbital plane
View from above orbital plane
View from above satellite
View from above satellite

Ground track
Ground track

The orbit data is extracted from the following two-line orbital elements,

1 15595U 85021A   24196.85663135  .00000352  00000-0  15744-3 0  9994
2 15595 108.0599  59.9902 0001989 254.5161 105.5760 14.39056530 61696
Epoch (UTC): 14 July 2024 20:33:32
Eccentricity: 0.0001989
inclination: 108.0599°
perigee height: 760 km
apogee height: 763 km
right ascension of ascending node: 59.9902°
argument of perigee: 254.5161°
revolutions per day: 14.39056530
mean anomaly at epoch: 105.5760°
orbit number at epoch: 6169

The dashed part of the orbit path shows where the satellite is in the earth's shadow,  

DLR